Погода в Нуристане

Узбекистан     38°29′32″N   65°38′47″E
темп.,
°C
ветер,
м/с
пор.,
м/с
влажн.,
%
обл.,
%
осадки,
мм/ч
давл.,
гПа
погр.,
м
1 марта, пн
пн123:00+7юв123713 0.0 101822
02:00+6юв234038 0.0 101822
05:00+6ююв232935 0.0 101822
08:00+9юв34240 0.0 101828
11:00+18ююз59170 0.0 10181531
14:00+20ююз810150 0.0 10182033
17:00+19ююз68180 0.0 1017945
20:00+13ю452620 0.0 101943
2 марта, вт
вт223:00+12ююв122959 0.0 102023
02:00+10ссв3432100 0.0 102026
05:00+10св3433100 0.0 101940
08:00+11св4433100 0.0 102073
11:00+16с2323100 0.0 1021311
14:00+18зсз4420100 0.0 10201036
17:00+15сз7735100 0.0 1019538
20:00+12ссв2343100 0.0 102140
3 марта, ср
ср323:00+11юв344895 0.0 102230
02:00+9всв015622 0.0 102222
05:00+8с235042 0.0 102123
08:00+8с234797 0.0 102243
11:00+14сз113667 0.0 1021498
14:00+16зсз332662 0.0 10191362
17:00+16з213245 0.0 10181337
20:00+11ссз12440 0.0 101823
4 марта, чт
чт423:00+11всв34430 0.0 101840
02:00+10св344728 0.0 101628
05:00+11св345548 0.0 101639
08:00+11всв3454100 0.0 101647
11:00+17св223785 0.0 1017385
14:00+20з443297 0.0 10161917
17:00+20ююв143176 0.0 10162224
20:00+15св345391 0.6 1019112
5 марта, пт
пт523:00+11с7124845 0.6 1022360
02:00+9ссз9116067 0.0 1024708
05:00+7ссв468582 0.8 1026417
08:00+8всв7880100 0.9 1027459
11:00+12ссв335684 0.9 1025819
14:00+16ссз32440 0.0 1021942
17:00+15с564745 0.0 1018620
20:00+12ссв4761100 0.0 1016229